TimeEST,TemperatureF,Dew PointF,Humidity,Sea Level PressureIn,VisibilityMPH,Wind Direction,Wind SpeedMPH,Gust SpeedMPH,PrecipitationIn,Events,Conditions,WindDirDegrees,DateUTC
12:53 AM,43.0,30.0,60,29.65,10.0,Calm,Calm,-,N/A,,Clear,0,2013-02-28 05:53:00
1:53 AM,42.1,30.0,62,29.64,10.0,ENE,3.5,-,N/A,,Clear,60,2013-02-28 06:53:00
2:53 AM,42.1,30.0,62,29.63,10.0,Calm,Calm,-,N/A,,Mostly Cloudy,0,2013-02-28 07:53:00
3:53 AM,42.1,30.0,62,29.64,10.0,WNW,3.5,-,N/A,,Overcast,300,2013-02-28 08:53:00
4:53 AM,41.0,26.1,55,29.65,10.0,Calm,Calm,-,N/A,,Scattered Clouds,0,2013-02-28 09:53:00
5:53 AM,39.9,25.0,55,29.67,10.0,Calm,Calm,-,N/A,,Clear,0,2013-02-28 10:53:00
6:53 AM,37.9,24.1,57,29.68,10.0,West,3.5,-,N/A,,Clear,270,2013-02-28 11:53:00
7:53 AM,37.0,24.1,59,29.69,10.0,Calm,Calm,-,N/A,,Clear,0,2013-02-28 12:53:00
8:53 AM,39.9,25.0,55,29.69,10.0,SW,3.5,-,N/A,,Scattered Clouds,230,2013-02-28 13:53:00
9:53 AM,41.0,25.0,53,29.69,10.0,SSW,6.9,-,N/A,,Clear,200,2013-02-28 14:53:00
10:53 AM,42.1,24.1,49,29.69,10.0,Variable,6.9,-,N/A,,Overcast,0,2013-02-28 15:53:00
11:53 AM,42.1,23.0,47,29.69,8.0,West,13.8,25.3,N/A,,Overcast,270,2013-02-28 16:53:00
12:11 PM,42.8,24.8,49,29.69,8.0,West,13.8,25.3,N/A,,Overcast,280,2013-02-28 17:11:00
12:53 PM,39.9,26.1,58,29.70,8.0,West,13.8,23.0,N/A,,Overcast,280,2013-02-28 17:53:00
1:53 PM,42.1,25.0,51,29.68,10.0,West,11.5,-,N/A,,Overcast,280,2013-02-28 18:53:00
2:53 PM,45.0,21.0,39,29.67,10.0,Variable,5.8,-,N/A,,Overcast,0,2013-02-28 19:53:00
3:53 PM,45.0,21.0,39,29.66,10.0,Variable,6.9,-,N/A,,Mostly Cloudy,0,2013-02-28 20:53:00
4:53 PM,45.0,23.0,42,29.67,10.0,West,11.5,-,N/A,,Mostly Cloudy,270,2013-02-28 21:53:00
5:53 PM,42.1,21.9,45,29.71,10.0,Calm,Calm,-,N/A,,Overcast,0,2013-02-28 22:53:00
6:53 PM,42.1,21.9,45,29.74,10.0,SW,3.5,-,N/A,,Overcast,230,2013-02-28 23:53:00
8:53 PM,41.0,23.0,49,29.76,10.0,West,5.8,-,N/A,,Overcast,270,2013-03-01 01:53:00
9:53 PM,39.9,24.1,53,29.75,10.0,Calm,Calm,-,N/A,,Overcast,0,2013-03-01 02:53:00
10:53 PM,39.0,24.1,55,29.76,10.0,Calm,Calm,-,N/A,,Mostly Cloudy,0,2013-03-01 03:53:00
11:53 PM,39.0,25.0,57,29.75,10.0,WNW,4.6,-,N/A,,Overcast,300,2013-03-01 04:53:00